Location: Tr�vern
(48.0333°N, 4.6000°W)
Time: 18:57:50
(UTC+00:00)

Cosmos 1674 Rocket - Pass Details

Date: 14 July 2020
Orbit: 602 x 631 km, 82.5° (Epoch: 12 August)

Event Time Altitude Azimuth Distance (km) Brightness Sun altitude
Rises 02:40:41 0° 352° (N) 2,890 7.8 -13.9°
Reaches altitude 10° 02:42:56 10° 356° (N) 1,975 7.0 -13.7°
Maximum altitude 02:47:17 67° 79° (E) 664 3.9 -13.3°
Drops below altitude 10° 02:51:34 10° 162° (SSE) 1,946 5.8 -12.9°
Enters shadow 02:52:19 - 163° (SSE) 2,244 6.1 -12.9°
